Time,TemperatureF,DewpointF,PressureIn,WindDirection,WindDirectionDegrees,WindSpeedMPH,WindSpeedGustMPH,Humidity,HourlyPrecipIn,Conditions,Clouds,dailyrainin,SolarRadiationWatts/m^2,SoftwareType,DateUTC
2013-02-09 00:00:00,13.0,11.0,-100.00,NNE,22,0.0,-999.0,90,-99.99,,,-99.99,0.000000,,2013-02-09 05:00:00,
2013-02-09 00:42:00,13.0,11.0,-100.00,NNE,22,0.0,-999.0,90,-99.99,,,-99.99,0.000000,,2013-02-09 05:42:00,
2013-02-09 00:52:00,13.0,11.0,-100.00,NNE,22,0.0,-999.0,90,-99.99,,,-99.99,0.000000,,2013-02-09 05:52:00,
2013-02-09 01:00:00,12.0,11.0,-100.00,NNE,22,0.0,-999.0,92,-99.99,,,-99.99,0.000000,,2013-02-09 06:00:00,
2013-02-09 01:42:00,12.0,11.0,-100.00,NNE,22,0.0,-999.0,92,-99.99,,,-99.99,0.000000,,2013-02-09 06:42:00,
2013-02-09 01:52:00,12.0,11.0,-100.00,NNE,22,0.0,-999.0,92,-99.99,,,-99.99,0.000000,,2013-02-09 06:52:00,
2013-02-09 02:00:00,11.0,10.0,-100.00,NNE,22,0.0,-999.0,93,-99.99,,,-99.99,0.000000,,2013-02-09 07:00:00,
2013-02-09 02:42:00,11.0,10.0,-100.00,NNE,22,0.0,-999.0,93,-99.99,,,-99.99,0.000000,,2013-02-09 07:42:00,
2013-02-09 02:52:00,11.0,10.0,-100.00,NNE,22,0.0,-999.0,93,-99.99,,,-99.99,0.000000,,2013-02-09 07:52:00,
2013-02-09 03:00:00,9.0,8.0,-100.00,NNE,22,0.0,-999.0,94,-99.99,,,-99.99,0.000000,,2013-02-09 08:00:00,
2013-02-09 03:42:00,9.0,8.0,-100.00,NNE,22,0.0,-999.0,94,-99.99,,,-99.99,0.000000,,2013-02-09 08:42:00,
2013-02-09 03:52:00,9.0,8.0,-100.00,NNE,22,0.0,-999.0,94,-99.99,,,-99.99,0.000000,,2013-02-09 08:52:00,
2013-02-09 04:00:00,6.0,5.0,-100.00,NNE,22,0.0,-999.0,92,-99.99,,,-99.99,0.000000,,2013-02-09 09:00:00,
2013-02-09 04:42:00,6.0,5.0,-100.00,NNE,22,0.0,-999.0,92,-99.99,,,-99.99,0.000000,,2013-02-09 09:42:00,
2013-02-09 04:52:00,6.0,5.0,-100.00,NNE,22,0.0,-999.0,92,-99.99,,,-99.99,0.000000,,2013-02-09 09:52:00,
2013-02-09 05:00:00,5.0,3.0,-100.00,NNE,22,0.0,-999.0,92,-99.99,,,-99.99,0.000000,,2013-02-09 10:00:00,
2013-02-09 05:42:00,5.0,3.0,-100.00,NNE,22,0.0,-999.0,92,-99.99,,,-99.99,0.000000,,2013-02-09 10:42:00,
2013-02-09 05:52:00,5.0,3.0,-100.00,NNE,22,0.0,-999.0,92,-99.99,,,-99.99,0.000000,,2013-02-09 10:52:00,
2013-02-09 06:00:00,4.0,2.0,-100.00,NNE,22,0.0,-999.0,91,-99.99,,,-99.99,0.000000,,2013-02-09 11:00:00,
2013-02-09 06:42:00,4.0,2.0,-100.00,NNE,22,0.0,-999.0,91,-99.99,,,-99.99,0.000000,,2013-02-09 11:42:00,
2013-02-09 06:52:00,4.0,2.0,-100.00,NNE,22,0.0,-999.0,91,-99.99,,,-99.99,0.000000,,2013-02-09 11:52:00,
2013-02-09 07:00:00,2.0,-1.0,-100.00,NNE,22,0.0,-999.0,89,-99.99,,,-99.99,0.000000,,2013-02-09 12:00:00,
2013-02-09 07:42:00,2.0,-1.0,-100.00,NNE,22,0.0,-999.0,89,-99.99,,,-99.99,0.000000,,2013-02-09 12:42:00,
2013-02-09 07:53:00,2.0,-1.0,-100.00,NNE,22,0.0,-999.0,89,-99.99,,,-99.99,0.000000,,2013-02-09 12:53:00,
2013-02-09 08:00:00,1.0,-2.0,-100.00,NNE,22,0.0,-999.0,87,-99.99,,,-99.99,1.160000,,2013-02-09 13:00:00,
2013-02-09 08:42:00,1.0,-2.0,-100.00,NNE,22,0.0,-999.0,87,-99.99,,,-99.99,1.160000,,2013-02-09 13:42:00,
2013-02-09 08:52:00,1.0,-2.0,-100.00,NNE,22,0.0,-999.0,87,-99.99,,,-99.99,1.160000,,2013-02-09 13:52:00,
2013-02-09 09:00:00,2.0,0.0,-100.00,NNE,22,0.0,-999.0,88,-99.99,,,-99.99,18.559999,,2013-02-09 14:00:00,
2013-02-09 09:42:00,2.0,0.0,-100.00,NNE,22,0.0,-999.0,88,-99.99,,,-99.99,18.559999,,2013-02-09 14:42:00,
2013-02-09 09:52:00,2.0,0.0,-100.00,NNE,22,0.0,-999.0,88,-99.99,,,-99.99,18.559999,,2013-02-09 14:52:00,
2013-02-09 10:00:00,7.0,5.0,-100.00,NNE,22,0.0,-999.0,89,-99.99,,,-99.99,29.000000,,2013-02-09 15:00:00,
2013-02-09 10:42:00,7.0,5.0,-100.00,NNE,22,0.0,-999.0,89,-99.99,,,-99.99,29.000000,,2013-02-09 15:42:00,
2013-02-09 10:52:00,7.0,5.0,-100.00,NNE,22,0.0,-999.0,89,-99.99,,,-99.99,29.000000,,2013-02-09 15:52:00,
2013-02-09 11:00:00,14.0,11.0,-100.00,NE,45,0.0,-999.0,88,-99.99,,,-99.99,113.680000,,2013-02-09 16:00:00,
2013-02-09 11:42:00,14.0,11.0,-100.00,NE,45,0.0,-999.0,88,-99.99,,,-99.99,113.680000,,2013-02-09 16:42:00,
2013-02-09 11:52:00,14.0,11.0,-100.00,NE,45,0.0,-999.0,88,-99.99,,,-99.99,113.680000,,2013-02-09 16:52:00,
2013-02-09 12:00:00,18.0,13.0,-100.00,SE,135,0.0,-999.0,78,-99.99,,,-99.99,151.960007,,2013-02-09 17:00:00,
2013-02-09 12:42:00,18.0,13.0,-100.00,SE,135,0.0,-999.0,78,-99.99,,,-99.99,151.960007,,2013-02-09 17:42:00,
2013-02-09 12:52:00,18.0,13.0,-100.00,SE,135,0.0,-999.0,78,-99.99,,,-99.99,151.960007,,2013-02-09 17:52:00,
2013-02-09 13:00:00,23.0,14.0,-100.00,SE,135,0.0,-999.0,67,0.01,,,-99.99,182.119995,,2013-02-09 18:00:00,
2013-02-09 13:42:00,23.0,14.0,-100.00,SE,135,0.0,-999.0,67,0.01,,,-99.99,182.119995,,2013-02-09 18:42:00,
2013-02-09 13:52:00,23.0,14.0,-100.00,SE,135,0.0,-999.0,67,0.01,,,-99.99,182.119995,,2013-02-09 18:52:00,
2013-02-09 14:00:00,27.0,15.0,-100.00,SE,135,1.0,-999.0,61,0.02,,,-99.99,203.000000,,2013-02-09 19:00:00,
2013-02-09 14:42:00,27.0,15.0,-100.00,SE,135,1.0,-999.0,61,0.02,,,-99.99,203.000000,,2013-02-09 19:42:00,
2013-02-09 14:52:00,27.0,15.0,-100.00,SE,135,1.0,-999.0,61,0.02,,,-99.99,203.000000,,2013-02-09 19:52:00,
2013-02-09 15:00:00,28.0,16.0,-100.00,SE,135,2.0,-999.0,60,0.02,,,-99.99,199.520004,,2013-02-09 20:00:00,
2013-02-09 15:42:00,28.0,16.0,-100.00,SE,135,2.0,-999.0,60,0.02,,,-99.99,199.520004,,2013-02-09 20:42:00,
2013-02-09 15:52:00,28.0,16.0,-100.00,SE,135,2.0,-999.0,60,0.02,,,-99.99,199.520004,,2013-02-09 20:52:00,
2013-02-09 16:00:00,29.0,17.0,-100.00,SE,135,2.0,-999.0,59,0.01,,,-99.99,176.320007,,2013-02-09 21:00:00,
2013-02-09 16:42:00,29.0,17.0,-100.00,SE,135,2.0,-999.0,59,0.01,,,-99.99,176.320007,,2013-02-09 21:42:00,
2013-02-09 16:52:00,29.0,17.0,-100.00,SE,135,2.0,-999.0,59,0.01,,,-99.99,176.320007,,2013-02-09 21:52:00,
2013-02-09 17:00:00,29.0,16.0,-100.00,SE,135,2.0,-999.0,58,-99.99,,,-99.99,128.759995,,2013-02-09 22:00:00,
2013-02-09 17:42:00,29.0,16.0,-100.00,SE,135,2.0,-999.0,58,-99.99,,,-99.99,128.759995,,2013-02-09 22:42:00,
2013-02-09 17:52:00,29.0,16.0,-100.00,SE,135,2.0,-999.0,58,-99.99,,,-99.99,128.759995,,2013-02-09 22:52:00,
2013-02-09 18:00:00,27.0,16.0,-100.00,SE,135,1.0,-999.0,61,-99.99,,,-99.99,52.200001,,2013-02-09 23:00:00,
2013-02-09 18:42:00,27.0,16.0,-100.00,SE,135,1.0,-999.0,61,-99.99,,,-99.99,52.200001,,2013-02-09 23:42:00,
2013-02-09 18:52:00,27.0,16.0,-100.00,SE,135,1.0,-999.0,61,-99.99,,,-99.99,52.200001,,2013-02-09 23:52:00,
2013-02-09 19:00:00,22.0,14.0,-100.00,SE,135,0.0,-999.0,71,-99.99,,,-99.99,0.000000,,2013-02-10 00:00:00,
2013-02-09 19:42:00,22.0,14.0,-100.00,SE,135,0.0,-999.0,71,-99.99,,,-99.99,0.000000,,2013-02-10 00:42:00,
2013-02-09 19:52:00,22.0,14.0,-100.00,SE,135,0.0,-999.0,71,-99.99,,,-99.99,0.000000,,2013-02-10 00:52:00,
2013-02-09 21:00:00,21.0,14.0,-100.00,SE,135,0.0,-999.0,74,-99.99,,,-99.99,0.000000,,2013-02-10 02:00:00,
2013-02-09 21:42:00,21.0,14.0,-100.00,SE,135,0.0,-999.0,74,-99.99,,,-99.99,0.000000,,2013-02-10 02:42:00,
2013-02-09 21:52:00,21.0,14.0,-100.00,SE,135,0.0,-999.0,74,-99.99,,,-99.99,0.000000,,2013-02-10 02:52:00,
2013-02-09 22:00:00,19.0,13.0,-100.00,SE,135,0.0,-999.0,77,-99.99,,,-99.99,0.000000,,2013-02-10 03:00:00,
2013-02-09 22:42:00,19.0,13.0,-100.00,SE,135,0.0,-999.0,77,-99.99,,,-99.99,0.000000,,2013-02-10 03:42:00,
2013-02-09 22:52:00,19.0,13.0,-100.00,SE,135,0.0,-999.0,77,-99.99,,,-99.99,0.000000,,2013-02-10 03:52:00,
2013-02-09 23:00:00,19.0,13.0,-100.00,SE,135,0.0,-999.0,79,-99.99,,,-99.99,0.000000,,2013-02-10 04:00:00,
2013-02-09 23:42:00,19.0,13.0,-100.00,SE,135,0.0,-999.0,79,-99.99,,,-99.99,0.000000,,2013-02-10 04:42:00,
2013-02-09 23:52:00,19.0,13.0,-100.00,SE,135,0.0,-999.0,79,-99.99,,,-99.99,0.000000,,2013-02-10 04:52:00,